Location: Sungai Bunut
(2.6333°N, 113.7333°E)
Time: 17:39:05
(UTC+00:00)

Tiros 1 despin weight - Pass Details

Date: 08 December 2023
Orbit: 581 x 624 km, 48.2° (Epoch: 03 March)

Event Time Altitude Azimuth Distance (km) Brightness Sun altitude
Rises 18:25:45 0° 302° (WNW) 2,815 - -52.9°
Reaches altitude 10° 18:28:15 10° 291° (WNW) 1,924 - -52.4°
Maximum altitude 18:32:04 29° 231° (SW) 1,120 - -51.6°
Drops below altitude 10° 18:35:57 10° 171° (S) 1,956 - -50.8°
Sets 18:38:31 0° 159° (SSE) 2,871 - -50.3°
